Regional Weather Roundup
Issued by NWS Upton, NY

Current Version | Previous Version | Graphics & Text | Print | Product List | Glossary Off
Versions: 1 2 3 4 5 6 7 8 9 10 11 12 13 14 15 16 17 18 19 20 21 22 23 24 25 26 27 28 29 30 31 32 33 34 35 36 37 38 39 40 41 42 43 44 45 46 47 48 49 50

000
ASUS41 KOKX 290605
RWROKX

REGIONAL WEATHER ROUNDUP
NATIONAL WEATHER SERVICE NEW YORK NY
200 AM EDT FRI JUL 29 2016

NOTE: "FAIR" INDICATES FEW OR NO CLOUDS BELOW 12,000 FEET WITH NO
SIGNIFICANT WEATHER AND/OR OBSTRUCTIONS TO VISIBILITY.

NYZ071-072-176-178-NJZ106-104-290700-
NEW YORK CITY METRO AREA

CITY           SKY/WX    TMP DP  RH WIND       PRES   REMARKS
Central Park   CLOUDY    75  72  90 E3        29.89S FOG
LaGuardia APRT LGT RAIN  78  72  81 E3        29.86S
Kennedy INTL   LGT RAIN  77  73  87 NE6       29.87S
Newark/Liberty LGT RAIN  77  72  84 NE3       29.86S
Bronx Bot Gard   N/A     73  72  94 E2        29.87F
Wall St Helipt CLOUDY    79  73  83 CALM      29.87S
Teterboro      LGT RAIN  77  71  82 CALM      29.86R
$$

NYZ177-179-078>081-290700-
LONG ISLAND NEW YORK

CITY           SKY/WX    TMP DP  RH WIND       PRES   REMARKS
Farmingdale    LGT RAIN  77  71  82 CALM      29.88R
MacArthur/ISP  LGT RAIN  77  70  79 CALM      29.87S
Shirley        CLOUDY    74  71  91 CALM      29.87F
Riverhead      NOT AVBL
Westhampton    CLOUDY    74  73  97 S3        29.89S FOG
Southhampton     N/A     75  75 100 CALM      29.83S
Bridgehampton    N/A     75  73  94 CALM      29.86F
East Hampton   MOCLDY    75  74  95 CALM      29.86F FOG
Montauk          N/A     75  75 100 CALM      29.88F
$$

NYZ052-065-067-290700-
HUDSON VALLEY

CITY           SKY/WX    TMP DP  RH WIND       PRES   REMARKS
White Plains   LGT RAIN  74  71  91 N7        29.87F
Newburgh       DRIZZLE   72  72 100 CALM      29.89F
Montgomery     LGT RAIN  72  71  97 CALM      29.87F FOG
Poughkeepsie   LGT RAIN  75  71  87 CALM      29.86F
Albany         CLOUDY    71  65  81 E5        29.89S
$$

NJZ001-105-106-008-010-013-015-019>022-104-290700-
NEW JERSEY

CITY           SKY/WX    TMP DP  RH WIND       PRES   REMARKS
Newark/Liberty LGT RAIN  77  72  84 NE3       29.86S
Teterboro      LGT RAIN  77  71  82 CALM      29.86R
Caldwell       CLOUDY    75  73  93 CALM      29.87S
Morristown     CLOUDY    73  70  88 CALM      29.87F FOG
Somerville     CLOUDY    75  73  93 NW3       29.85F FOG
Linden         CLOUDY    77  72  83 CALM      29.88F
Sussex         LGT RAIN  72  72 100 CALM      29.88S FOG
Abdover          N/A     72  71  97 CALM      29.89F
Trenton        CLOUDY    75  72  90 CALM      29.87S
Millville      LGT RAIN  74  72  93 E6        29.84F FOG
Atlantic City  CLOUDY    75  73  93 CALM      29.85F
Wrightstown    LGT RAIN  72  72 100 NE2       29.84F FOG
Toms River     CLOUDY    74  72  93 CALM      29.87F
Belmar         CLOUDY    74  71  91 E3        29.87F
$$

PAZ047>061-062-071-290700-
EASTERN PENNSYLVANIA

CITY           SKY/WX    TMP DP  RH WIND       PRES   REMARKS
Philadelphia   RAIN      75  72  90 E6        29.87R FOG
Allentown      LGT RAIN  74  71  91 CALM      29.88F FOG
Scranton       CLOUDY    71  69  93 CALM      29.90S FOG
$$

CTZ002-004>006-009-010-012-RIZ004-006-007-MAZ004-011-015-290700-
SOUTHERN NEW ENGLAND
 IN CT

CITY           SKY/WX    TMP DP  RH WIND       PRES   REMARKS
Bradley INTL   LGT RAIN  78  67  68 W5        29.87S
Hartford       CLOUDY    81  70  69 W6        29.86S
Danbury        CLOUDY    73  70  90 CALM      29.90S
Wtrbury/Oxford   N/A     73  64  73 NW5       29.92S
Bridgeport     LGT RAIN  79  70  74 N6        29.86S
Meriden        LGT RAIN  76  71  85 CALM      29.87F
New Haven      CLOUDY    77  70  79 CALM      29.87S
Chester        LGT RAIN  75  73  94 CALM      29.88F
Groton         LGT RAIN  74  73  97 CALM      29.85F VSB 1/4
Wilimantic     CLOUDY    77  73  87 CALM      29.87F

 IN RI

CITY           SKY/WX    TMP DP  RH WIND       PRES   REMARKS
Providence     CLOUDY    76  73  91 S7        29.87F
Block Island   CLOUDY    76  75  97 S6        29.88F FOG
Westerly       FOG       74  71  91 S5        29.88S VSB 1/4
 IN MA

CITY           SKY/WX    TMP DP  RH WIND       PRES   REMARKS
Boston         CLOUDY    78  72  81 SW10      29.85
Worchester     LGT RAIN  72  68  87 W7        29.90S
Westfield      CLOUDY    78  66  66 W7        29.87R
Provincetown   MOCLDY    74  73  97 S9        29.87F
Nantucket      CLOUDY    70  69  97 CALM      29.89S FOG
$$

ANZ330-335-338-340-345-350-353-355-290700-
COASTAL MARINE OBSERVATIONS


STATION/POSITION TIME  SKY/WX   TEMP    WIND        PRES    VSBY  WAVE
                                AIR SEA DIR/SP/G                  HT/PER
                 (UTC)          (F)     (DEG/KT/KT) (MB)    (MI)  (FT/S)
NY HARB ENTRANCE 0450            74 74  360/  2/  2 1011.0          1/ 6
20S FIRE ISLAND  0450            77 78  330/  2/  4 1011.2          1/ 5
GREAT SOUTH BAY  0500            80 83  320/  4/  6   N/A
23 SSW MONTAUK P 0450            75 74  170/  2/  4 1012.1          1/ 8
15 E BARNEGAT LI 0500               79                N/A           1/ 6
HUDSON CANYON    0550            79 80              1011.1          1/ 8
KINGS POINT      0500            77 75              1011.1
EXECUTION ROCKS  NOT AVBL
CENTRAL LI SOUND NOT AVBL
EASTERN LI SOUND NOT AVBL
ROBBINS REEF     0500            77      10/  5/  5 1010.7
$$


>>>>>>>>>>>>>>>>>>>>>>>>>>>> KEY <<<<<<<<<<<<<<<<<<<<<<<<<<<
>                                                          <
>     SKY/WX - Sky Condition/Present Weather               <
>     TMP    - Temperature in Fahrenheit                   <
>     DP     - Dew Point in Fahrenheit                     <
>     RH     - Relative Humidity in Percent                <
>     WIND   - Direction (from) and Speed in MPH           <
>     PRES   - Mean Sea Level Pressure (inches of Hg)      <
>     WCI    - Wind Chill Index                            <
>     VSB    - VISIBILITY IN MILES                         <
>     HX     - HEAT INDEX                                  <
>     TC     - TEMPERATURE IN CELSIUS                      <
>     VRB    - VARIABLE WIND DIRECTION                     <
>                                                          <
>>>>>>>>>>>>>>>>>>>>>>>>>>>> KEY <<<<<<<<<<<<<<<<<<<<<<<<<<<



USA.gov is the U.S. government's official web portal to all federal, state and local government web resources and services.